星链-35584(STARLINK-35584)

导读 | 豆包AI

STARLINK-355584是美国太空探索技术公司星链星座的卫星,于2025年10月19日发射,星链项目旨在打造全球卫星互联网星座,为全球提供高速低延迟的宽带互联网服务,该卫星承担着扩容星座网络、提升覆盖密度与服务稳定性的任务,进一步完善星链系统的全球服务能力。

基本信息
目录编号:
66106
目录名称:
STARLINK-35584
国际标识:
2025-236W
轨道中心:
EARTH
卫星名称:
星链-35584
卫星全名:
星链-35584(STARLINK-35584)
卫星状态:
在轨 (已飞行146 天)
发射日期:
2025-10-19 UTC
国别 :
美国 (US)
星等 :
--
轨道信息
数据来源 国际轨道数据 AOE轨道数据
星历时间 2026-03-13T14:40:57+0800
23小时前
查看轨道信息
2026-03-09T02:00:00+0800
5天前
查看轨道信息
半长轴 6853.365km 6853.394km
偏心率 0.0001312 0.0002637
轨道倾角 53.159° 53.158°
近地点辐角 79.759° 68.053°
升交点赤经 87.228° 108.270°
平近点角 280.356° 172.381°
近地点 474.328km 473.449km
远地点 476.128km 477.065km
周期 94.106分钟 94.106分钟
每日圈数 15.301958 15.301862
详细信息
固有亮度:
5
最大亮度:
2.5
卫星平台:
Starlink V1.0
覆盖范围:
全球
运营商:
太空探索技术公司
运营商所在国:
美国
制造商(研发单位):
太空探索技术公司
制造商所在国:
美国
使用方式:
暂无
卫星简介
Starlink 计划是 SpaceX 推出的全球卫星互联网项目,通过发射低轨道卫星,为全球尤其是偏远地区提供高速、低延迟的互联网服务。自 2019 年起,Starlink 已部署数千颗卫星,旨在缩小全球数字鸿沟,推动互联网普及。该项目还为军事、航空等行业提供通信支持,带来广泛经济效益。
2D轨道图
3D轨道图
轨道高度分析图
轨道倾角分析图
轨道综合分析图
查看轨道综合分析图